Location: Melbourne
(37.8170°S, 144.9670°E)
Time: 04:23:46
(UTC+11:00)

ADEOS Rocket - Visible Passes

Search period start: 01 March 2015 00:00
Search period end: 11 March 2015 00:00
Orbit: 860 x 1306 km, 98.7° (Epoch: 26 February)

Date Brightness Start Highest point End Pass type
(mag) Time Alt. Az. Time Alt. Az. Time Alt. Az.
01 Mar 3.5 21:00:48 10° SSE 21:06:03 36° E 21:11:45 10° NNE visible
01 Mar 4.6 22:46:34 10° S 22:51:34 31° WSW 22:56:46 10° NW visible
02 Mar 3.0 21:57:01 10° S 22:02:48 77° WSW 22:09:05 10° NNW visible
03 Mar 3.3 21:08:19 10° SSE 21:13:50 43° E 21:19:50 10° N visible
03 Mar 4.8 22:54:27 10° SSW 22:59:15 26° WSW 23:04:12 10° WNW visible
04 Mar 4.4 20:21:01 10° SE 20:24:31 16° E 20:28:29 10° NE visible
04 Mar 3.3 22:04:44 10° S 22:10:31 66° WSW 22:16:50 10° NNW visible
05 Mar 3.1 21:15:52 10° SSE 21:21:36 51° E 21:27:53 10° N visible
05 Mar 5.1 23:02:23 10° SSW 23:06:56 23° WSW 23:11:35 10° WNW visible
06 Mar 4.2 20:28:10 10° SE 20:32:22 20° E 20:37:04 10° NE visible
06 Mar 3.6 22:12:28 10° S 22:18:15 56° WSW 22:24:32 10° NNW visible
07 Mar 3.0 21:23:28 10° SSE 21:29:22 61° E 21:35:52 10° N visible
07 Mar 5.3 23:10:20 10° SSW 23:14:37 20° WSW 23:18:53 10° WNW visible
08 Mar 4.0 20:35:27 10° SE 20:40:13 24° E 20:45:30 10° NNE visible
08 Mar 3.9 22:20:14 10° S 22:25:58 48° WSW 22:32:11 10° NW visible
09 Mar 3.0 21:31:05 10° SSE 21:37:08 72° ENE 21:43:48 10° N visible
09 Mar 5.4 23:18:23 10° SSW 23:22:17 17° WSW 23:26:06 10° WNW visible
10 Mar 3.8 20:42:51 10° SE 20:48:03 29° E 20:53:48 10° NNE visible
10 Mar 4.2 22:28:02 10° S 22:33:42 42° WSW 22:39:48 10° NW visible
